Weather History for Hot Springs, AR

Change the Weather History Date:

Thursday, June 13, 2013

  Actual Average Record
Temperature  
Mean Temperature 84 °F -  
Max Temperature 97 °F 88 °F 103 °F (1953)
Min Temperature 73 °F 65 °F 52 °F (1985)
Cooling Degree Days 20    
Growing Degree Days 34 (Base 50)    
Moisture  
Dew Point 72 °F    
Average Humidity 65    
Maximum Humidity 91    
Minimum Humidity 44    
Precipitation  
Precipitation 0.00 in - - ()
Sea Level Pressure  
Sea Level Pressure 29.95 in    
Wind  
Wind Speed 3 mph (NW)    
Max Wind Speed 13 mph    
Max Gust Speed 17 mph    
Visibility 10 miles    
Events      
Averages and records for this station are not official NWS values.
T = Trace of Precipitation, MM = Missing Value Source: NWS Daily Summary

Daily Weather History Graph

Daily Weather History Graph

Search for Another Location

Airport:

Trip Planner

Search our weather history database for the weather conditions in past years. The results will help you decide how hot, cold, wet, or windy it might be!

Date:

Astronomy

Jun. 13, 2013 Rise Set
Actual Time 5:59 AM CDT 8:25 PM CDT
Civil Twilight 5:29 AM CDT 8:55 PM CDT
Nautical Twilight 4:53 AM CDT 9:31 PM CDT
Astronomical Twilight 4:13 AM CDT 10:11 PM CDT
Moon 10:27 AM CDT (6/13) 11:43 PM CDT (6/13)
Length of Visible Light 15h 25m
Length of Day
14h 26m
Waxing Crescent, 22% of the Moon is Illuminated
Jun 13
Waxing Crescent
Jun 16
First Quarter
Jun 23
Full
Jun 29
Last Quarter
Jul 8
New

Hourly Weather History & Observations

Time (CDT) Temp. Heat Index Dew Point Humidity Pressure Visibility Wind Dir Wind Speed Gust Speed Precip Events Conditions
12:53 AM 75.9 °F - 71.1 °F 85% 29.96 in 10.0 mi Calm Calm - N/A   Clear
1:53 AM 75.9 °F - 72.0 °F 87% 29.96 in 10.0 mi Calm Calm - N/A   Clear
2:53 AM 75.9 °F - 72.0 °F 87% 29.96 in 10.0 mi NW 3.5 mph - N/A   Clear
3:53 AM 75.0 °F - 71.1 °F 87% 29.96 in 10.0 mi Calm Calm - N/A   Clear
4:53 AM 75.0 °F - 71.1 °F 87% 29.96 in 10.0 mi Calm Calm - N/A   Clear
5:53 AM 73.9 °F - 71.1 °F 91% 29.97 in 9.0 mi Calm Calm - N/A   Clear
6:53 AM 75.0 °F - 71.1 °F 87% 29.98 in 9.0 mi NW 3.5 mph - N/A   Clear
7:53 AM 79.0 °F - 72.0 °F 79% 29.99 in 10.0 mi Variable 3.5 mph - N/A   Clear
8:53 AM 82.9 °F 88.8 °F 73.0 °F 72% 29.99 in 10.0 mi Calm Calm - N/A   Clear
9:53 AM 87.1 °F 95.4 °F 73.9 °F 65% 29.99 in 10.0 mi West 8.1 mph - N/A   Clear
10:53 AM 90.0 °F 96.9 °F 72.0 °F 55% 29.99 in 10.0 mi WNW 6.9 mph - N/A   Clear
11:53 AM 91.9 °F 99.5 °F 72.0 °F 52% 29.98 in 10.0 mi West 9.2 mph - N/A   Clear
12:53 PM 93.0 °F 100.7 °F 72.0 °F 50% 29.97 in 10.0 mi West 9.2 mph - N/A   Clear
1:53 PM 95.0 °F 104.5 °F 73.0 °F 49% 29.95 in 10.0 mi West 5.8 mph - N/A   Clear
2:53 PM 95.0 °F 103.2 °F 72.0 °F 47% 29.94 in 10.0 mi WNW 8.1 mph - N/A   Clear
3:53 PM 96.1 °F 103.5 °F 71.1 °F 44% 29.92 in 10.0 mi NW 8.1 mph - N/A   Clear
4:53 PM 95.0 °F 103.2 °F 72.0 °F 47% 29.90 in 10.0 mi WNW 6.9 mph - N/A   Clear
5:53 PM 95.0 °F 104.5 °F 73.0 °F 49% 29.88 in 10.0 mi West 3.5 mph - N/A   Clear
6:53 PM 93.9 °F 103.4 °F 73.0 °F 51% 29.88 in 10.0 mi Variable 3.5 mph - N/A   Clear
7:53 PM 91.9 °F 101.3 °F 73.9 °F 55% 29.89 in 10.0 mi Calm Calm - N/A   Mostly Cloudy
8:53 PM 88.0 °F 97.5 °F 75.0 °F 65% 29.89 in 10.0 mi NNE 3.5 mph - N/A   Clear
9:53 PM 87.1 °F 91.3 °F 69.1 °F 55% 29.91 in 10.0 mi ENE 12.7 mph 17.3 mph N/A   Partly Cloudy
10:53 PM 84.0 °F 86.3 °F 66.0 °F 55% 29.94 in 10.0 mi East 5.8 mph - N/A   Clear
11:53 PM 82.0 °F 84.5 °F 66.9 °F 60% 29.94 in 10.0 mi East 5.8 mph - N/A   Partly Cloudy